Year,Month,Day,Hour,Minute,Value (Times are PST for temperature in C)
2010,03,24,00,00,4.70
2010,03,24,00,01,4.70
2010,03,24,00,02,4.70
2010,03,24,00,03,4.70
2010,03,24,00,04,4.70
2010,03,24,00,05,4.70
2010,03,24,00,06,4.70
2010,03,24,00,07,4.70
2010,03,24,00,08,4.70
2010,03,24,00,09,4.70
2010,03,24,00,10,4.70
2010,03,24,00,11,4.70
2010,03,24,00,12,4.70
2010,03,24,00,13,4.60
2010,03,24,00,14,4.60
2010,03,24,00,15,4.60
2010,03,24,00,16,4.60
2010,03,24,00,17,4.60
2010,03,24,00,18,4.60
2010,03,24,00,19,4.60
2010,03,24,00,20,4.60
2010,03,24,00,21,4.60
2010,03,24,00,22,4.60
2010,03,24,00,23,4.60
2010,03,24,00,24,4.60
2010,03,24,00,25,4.60
2010,03,24,00,26,4.60
2010,03,24,00,27,4.60
2010,03,24,00,28,4.60
2010,03,24,00,29,4.60
2010,03,24,00,30,4.60
2010,03,24,00,31,4.60
2010,03,24,00,32,4.60
2010,03,24,00,33,4.60
2010,03,24,00,34,4.60
2010,03,24,00,35,4.60
2010,03,24,00,36,4.60
2010,03,24,00,37,4.60
2010,03,24,00,38,4.60
2010,03,24,00,39,4.60
2010,03,24,00,40,4.50
2010,03,24,00,41,4.50
2010,03,24,00,42,4.50
2010,03,24,00,43,4.50
2010,03,24,00,44,4.50
2010,03,24,00,45,4.50
2010,03,24,00,46,4.50
2010,03,24,00,47,4.50
2010,03,24,00,48,4.50
2010,03,24,00,49,4.60
2010,03,24,00,50,4.60
2010,03,24,00,51,4.60
2010,03,24,00,52,4.60
2010,03,24,00,53,4.60
2010,03,24,00,54,4.60
2010,03,24,00,55,4.60
2010,03,24,00,56,4.60
2010,03,24,00,57,4.50
2010,03,24,00,58,4.50
2010,03,24,00,59,4.50
2010,03,24,01,00,4.50
2010,03,24,01,01,4.40
2010,03,24,01,02,4.40
2010,03,24,01,03,4.40
2010,03,24,01,04,4.40
2010,03,24,01,05,4.40
2010,03,24,01,06,4.40
2010,03,24,01,07,4.40
2010,03,24,01,08,4.40
2010,03,24,01,09,4.40
2010,03,24,01,10,4.40
2010,03,24,01,11,4.40
2010,03,24,01,12,4.40
2010,03,24,01,13,4.40
2010,03,24,01,14,4.40
2010,03,24,01,15,4.40
2010,03,24,01,16,4.40
2010,03,24,01,17,4.40
2010,03,24,01,18,4.40
2010,03,24,01,19,4.40
2010,03,24,01,20,4.40
2010,03,24,01,21,4.40
2010,03,24,01,22,4.40
2010,03,24,01,23,4.40
2010,03,24,01,24,4.40
2010,03,24,01,25,4.40
2010,03,24,01,26,4.40
2010,03,24,01,27,4.40
2010,03,24,01,28,4.40
2010,03,24,01,29,4.40
2010,03,24,01,30,4.40
2010,03,24,01,31,4.40
2010,03,24,01,32,4.50
2010,03,24,01,33,4.50
2010,03,24,01,34,4.40
2010,03,24,01,35,4.40
2010,03,24,01,36,4.40
2010,03,24,01,37,4.40
2010,03,24,01,38,4.40
2010,03,24,01,39,4.40
2010,03,24,01,40,4.40
2010,03,24,01,41,4.40
2010,03,24,01,42,4.40
2010,03,24,01,43,4.40
2010,03,24,01,44,4.40
2010,03,24,01,45,4.40
2010,03,24,01,46,4.40
2010,03,24,01,47,4.50
2010,03,24,01,48,4.50
2010,03,24,01,49,4.40
2010,03,24,01,50,4.40
2010,03,24,01,51,4.40
2010,03,24,01,52,4.40
2010,03,24,01,53,4.40
2010,03,24,01,54,4.40
2010,03,24,01,55,4.40
2010,03,24,01,56,4.40
2010,03,24,01,57,4.40
2010,03,24,01,58,4.40
2010,03,24,01,59,4.40
2010,03,24,02,00,4.40
2010,03,24,02,01,4.40
2010,03,24,02,02,4.40
2010,03,24,02,03,4.40
2010,03,24,02,04,4.50
2010,03,24,02,05,4.50
2010,03,24,02,06,4.50
2010,03,24,02,07,4.60
2010,03,24,02,08,4.60
2010,03,24,02,09,4.60
2010,03,24,02,10,4.60
2010,03,24,02,11,4.60
2010,03,24,02,12,4.60
2010,03,24,02,13,4.60
2010,03,24,02,14,4.60
2010,03,24,02,15,4.70
2010,03,24,02,16,4.80
2010,03,24,02,17,4.80
2010,03,24,02,18,4.80
2010,03,24,02,19,4.70
2010,03,24,02,20,4.70
2010,03,24,02,21,4.70
2010,03,24,02,22,4.70
2010,03,24,02,23,4.70
2010,03,24,02,24,4.70
2010,03,24,02,25,4.70
2010,03,24,02,26,4.60
2010,03,24,02,27,4.60
2010,03,24,02,28,4.60
2010,03,24,02,29,4.60
2010,03,24,02,30,4.60
2010,03,24,02,31,4.60
2010,03,24,02,32,4.60
2010,03,24,02,33,4.60
2010,03,24,02,34,4.50
2010,03,24,02,35,4.50
2010,03,24,02,36,4.50
2010,03,24,02,37,4.60
2010,03,24,02,38,4.60
2010,03,24,02,39,4.60
2010,03,24,02,40,4.50
2010,03,24,02,41,4.50
2010,03,24,02,42,4.50
2010,03,24,02,43,4.40
2010,03,24,02,44,4.40
2010,03,24,02,45,4.40
2010,03,24,02,46,4.40
2010,03,24,02,47,4.40
2010,03,24,02,48,4.40
2010,03,24,02,49,4.40
2010,03,24,02,50,4.40
2010,03,24,02,51,4.40
2010,03,24,02,52,4.40
2010,03,24,02,53,4.50
2010,03,24,02,54,4.50
2010,03,24,02,55,4.50
2010,03,24,02,56,4.50
2010,03,24,02,57,4.50
2010,03,24,02,58,4.50
2010,03,24,02,59,4.50
2010,03,24,03,00,4.50
2010,03,24,03,01,4.50
2010,03,24,03,02,4.50
2010,03,24,03,03,4.60
2010,03,24,03,04,4.50
2010,03,24,03,05,4.50
2010,03,24,03,06,4.50
2010,03,24,03,07,4.50
2010,03,24,03,08,4.50
2010,03,24,03,09,4.50
2010,03,24,03,10,4.50
2010,03,24,03,11,4.50
2010,03,24,03,12,4.60
2010,03,24,03,13,4.60
2010,03,24,03,14,4.60
2010,03,24,03,15,4.60
2010,03,24,03,16,4.60
2010,03,24,03,17,4.60
2010,03,24,03,18,4.60
2010,03,24,03,19,4.60
2010,03,24,03,20,4.50
2010,03,24,03,21,4.50
2010,03,24,03,22,4.50
2010,03,24,03,23,4.40
2010,03,24,03,24,4.40
2010,03,24,03,25,4.40
2010,03,24,03,26,4.40
2010,03,24,03,27,4.40
2010,03,24,03,28,4.30
2010,03,24,03,29,4.30
2010,03,24,03,30,4.30
2010,03,24,03,31,4.30
2010,03,24,03,32,4.30
2010,03,24,03,33,4.20
2010,03,24,03,34,4.20
2010,03,24,03,35,4.20
2010,03,24,03,36,4.20
2010,03,24,03,37,4.20
2010,03,24,03,38,4.30
2010,03,24,03,39,4.30
2010,03,24,03,40,4.30
2010,03,24,03,41,4.30
2010,03,24,03,42,4.30
2010,03,24,03,43,4.20
2010,03,24,03,44,4.20
2010,03,24,03,45,4.20
2010,03,24,03,46,4.20
2010,03,24,03,47,4.20
2010,03,24,03,48,4.10
2010,03,24,03,49,4.10
2010,03,24,03,50,4.10
2010,03,24,03,51,4.10
2010,03,24,03,52,4.10
2010,03,24,03,53,4.10
2010,03,24,03,54,4.10
2010,03,24,03,55,4.10
2010,03,24,03,56,4.10
2010,03,24,03,57,4.10
2010,03,24,03,58,4.10
2010,03,24,03,59,4.10
2010,03,24,04,00,4.10
2010,03,24,04,01,4.10
2010,03,24,04,02,4.10
2010,03,24,04,03,4.10
2010,03,24,04,04,4.10
2010,03,24,04,05,4.00
2010,03,24,04,06,4.00
2010,03,24,04,07,4.00
2010,03,24,04,08,3.90
2010,03,24,04,09,3.90
2010,03,24,04,10,3.90
2010,03,24,04,11,3.90
2010,03,24,04,12,3.90
2010,03,24,04,13,3.90
2010,03,24,04,14,3.90
2010,03,24,04,15,4.00
2010,03,24,04,16,4.00
2010,03,24,04,17,4.10
2010,03,24,04,18,4.10
2010,03,24,04,19,4.20
2010,03,24,04,20,4.20
2010,03,24,04,21,4.20
2010,03,24,04,22,4.20
2010,03,24,04,23,4.20
2010,03,24,04,24,4.10
2010,03,24,04,25,4.10
2010,03,24,04,26,4.10
2010,03,24,04,27,4.10
2010,03,24,04,28,4.10
2010,03,24,04,29,4.10
2010,03,24,04,30,4.00
2010,03,24,04,31,4.00
2010,03,24,04,32,4.00
2010,03,24,04,33,3.90
2010,03,24,04,34,3.90
2010,03,24,04,35,3.90
2010,03,24,04,36,3.90
2010,03,24,04,37,3.90
2010,03,24,04,38,3.90
2010,03,24,04,39,3.80
2010,03,24,04,40,3.80
2010,03,24,04,41,3.80
2010,03,24,04,42,3.80
2010,03,24,04,43,3.80
2010,03,24,04,44,3.80
2010,03,24,04,45,3.80
2010,03,24,04,46,3.80
2010,03,24,04,47,3.80
2010,03,24,04,48,3.70
2010,03,24,04,49,3.70
2010,03,24,04,50,3.70
2010,03,24,04,51,3.70
2010,03,24,04,52,3.70
2010,03,24,04,53,3.70
2010,03,24,04,54,3.70
2010,03,24,04,55,3.70
2010,03,24,04,56,3.70
2010,03,24,04,57,3.70
2010,03,24,04,58,3.70
2010,03,24,04,59,3.70
2010,03,24,05,00,3.70
2010,03,24,05,01,3.70
2010,03,24,05,02,3.70
2010,03,24,05,03,3.70
2010,03,24,05,04,3.70
2010,03,24,05,05,3.70
2010,03,24,05,06,3.70
2010,03,24,05,07,3.70
2010,03,24,05,08,3.70
2010,03,24,05,09,3.70
2010,03,24,05,10,3.70
2010,03,24,05,11,3.70
2010,03,24,05,12,3.70
2010,03,24,05,13,3.70
2010,03,24,05,14,3.60
2010,03,24,05,15,3.60
2010,03,24,05,16,3.60
2010,03,24,05,17,3.60
2010,03,24,05,18,3.60
2010,03,24,05,19,3.60
2010,03,24,05,20,3.60
2010,03,24,05,21,3.60
2010,03,24,05,22,3.60
2010,03,24,05,23,3.50
2010,03,24,05,24,3.50
2010,03,24,05,25,3.50
2010,03,24,05,26,3.60
2010,03,24,05,27,3.50
2010,03,24,05,28,3.50
2010,03,24,05,29,3.60
2010,03,24,05,30,3.60
2010,03,24,05,31,3.60
2010,03,24,05,32,3.50
2010,03,24,05,33,3.50
2010,03,24,05,34,3.50
2010,03,24,05,35,3.50
2010,03,24,05,36,3.50
2010,03,24,05,37,3.50
2010,03,24,05,38,3.50
2010,03,24,05,39,3.50
2010,03,24,05,40,3.50
2010,03,24,05,41,3.50
2010,03,24,05,42,3.50
2010,03,24,05,43,3.50
2010,03,24,05,44,3.50
2010,03,24,05,45,3.40
2010,03,24,05,46,3.40
2010,03,24,05,47,3.40
2010,03,24,05,48,3.40
2010,03,24,05,49,3.40
2010,03,24,05,50,3.40
2010,03,24,05,51,3.40
2010,03,24,05,52,3.40
2010,03,24,05,53,3.30
2010,03,24,05,54,3.30
2010,03,24,05,55,3.30
2010,03,24,05,56,3.30
2010,03,24,05,57,3.30
2010,03,24,05,58,3.30
2010,03,24,05,59,3.30
2010,03,24,06,00,3.30
2010,03,24,06,01,3.30
2010,03,24,06,02,3.30
2010,03,24,06,03,3.30
2010,03,24,06,04,3.30
2010,03,24,06,05,3.30
2010,03,24,06,06,3.30
2010,03,24,06,07,3.30
2010,03,24,06,08,3.30
2010,03,24,06,09,3.30
2010,03,24,06,10,3.40
2010,03,24,06,11,3.40
2010,03,24,06,12,3.40
2010,03,24,06,13,3.30
2010,03,24,06,14,3.30
2010,03,24,06,15,3.30
2010,03,24,06,16,3.30
2010,03,24,06,17,3.30
2010,03,24,06,18,3.30
2010,03,24,06,19,3.30
2010,03,24,06,20,3.30
2010,03,24,06,21,3.30
2010,03,24,06,22,3.20
2010,03,24,06,23,3.20
2010,03,24,06,24,3.20
2010,03,24,06,25,3.20
2010,03,24,06,26,3.20
2010,03,24,06,27,3.20
2010,03,24,06,28,3.20
2010,03,24,06,29,3.20
2010,03,24,06,30,3.20
2010,03,24,06,31,3.20
2010,03,24,06,32,3.20
2010,03,24,06,33,3.10
2010,03,24,06,34,3.10
2010,03,24,06,35,3.10
2010,03,24,06,36,3.10
2010,03,24,06,37,3.10
2010,03,24,06,38,3.20
2010,03,24,06,39,3.20
2010,03,24,06,40,3.20
2010,03,24,06,41,3.20
2010,03,24,06,42,3.30
2010,03,24,06,43,3.30
2010,03,24,06,44,3.30
2010,03,24,06,45,3.30
2010,03,24,06,46,3.30
2010,03,24,06,47,3.30
2010,03,24,06,48,3.30
2010,03,24,06,49,3.30
2010,03,24,06,50,3.20
2010,03,24,06,51,3.20
2010,03,24,06,52,3.20
2010,03,24,06,53,3.20
2010,03,24,06,54,3.20
2010,03,24,06,55,3.20
2010,03,24,06,56,3.20
2010,03,24,06,57,3.10
2010,03,24,06,58,3.10
2010,03,24,06,59,3.10
2010,03,24,07,00,3.10
2010,03,24,07,01,3.10
2010,03,24,07,02,3.10
2010,03,24,07,03,3.10
2010,03,24,07,04,3.10
2010,03,24,07,05,3.10
2010,03,24,07,06,3.10
2010,03,24,07,07,3.10
2010,03,24,07,08,3.10
2010,03,24,07,09,3.10
2010,03,24,07,10,3.10
2010,03,24,07,11,3.10
2010,03,24,07,12,3.10
2010,03,24,07,13,3.10
2010,03,24,07,14,3.10
2010,03,24,07,15,3.10
2010,03,24,07,16,3.10
2010,03,24,07,17,3.10
2010,03,24,07,18,3.10
2010,03,24,07,19,3.10
2010,03,24,07,20,3.10
2010,03,24,07,21,3.10
2010,03,24,07,22,3.10
2010,03,24,07,23,3.20
2010,03,24,07,24,3.20
2010,03,24,07,25,3.20
2010,03,24,07,26,3.10
2010,03,24,07,27,3.10
2010,03,24,07,28,3.20
2010,03,24,07,29,3.20
2010,03,24,07,30,3.20
2010,03,24,07,31,3.20
2010,03,24,07,32,3.20
2010,03,24,07,33,3.20
2010,03,24,07,34,3.20
2010,03,24,07,35,3.20
2010,03,24,07,36,3.20
2010,03,24,07,37,3.30
2010,03,24,07,38,3.30
2010,03,24,07,39,3.30
2010,03,24,07,40,3.30
2010,03,24,07,41,3.30
2010,03,24,07,42,3.30
2010,03,24,07,43,3.30
2010,03,24,07,44,3.30
2010,03,24,07,45,3.30
2010,03,24,07,46,3.30
2010,03,24,07,47,3.30
2010,03,24,07,48,3.30
2010,03,24,07,49,3.30
2010,03,24,07,50,3.30
2010,03,24,07,51,3.40
2010,03,24,07,52,3.40
2010,03,24,07,53,3.40
2010,03,24,07,54,3.40
2010,03,24,07,55,3.50
2010,03,24,07,56,3.50
2010,03,24,07,57,3.50
2010,03,24,07,58,3.50
2010,03,24,07,59,3.50
2010,03,24,08,00,3.60
2010,03,24,08,01,3.60
2010,03,24,08,02,3.60
2010,03,24,08,03,3.60
2010,03,24,08,04,3.60
2010,03,24,08,05,3.60
2010,03,24,08,06,3.70
2010,03,24,08,07,3.70
2010,03,24,08,08,3.70
2010,03,24,08,09,3.70
2010,03,24,08,10,3.80
2010,03,24,08,11,3.80
2010,03,24,08,12,3.80
2010,03,24,08,13,3.90
2010,03,24,08,14,3.90
2010,03,24,08,15,3.90
2010,03,24,08,16,3.90
2010,03,24,08,17,3.90
2010,03,24,08,18,4.00
2010,03,24,08,19,4.00
2010,03,24,08,20,4.00
2010,03,24,08,21,4.10
2010,03,24,08,22,4.10
2010,03,24,08,23,4.10
2010,03,24,08,24,4.10
2010,03,24,08,25,4.20
2010,03,24,08,26,4.20
2010,03,24,08,27,4.20
2010,03,24,08,28,4.20
2010,03,24,08,29,4.30
2010,03,24,08,30,4.30
2010,03,24,08,31,4.30
2010,03,24,08,32,4.30
2010,03,24,08,33,4.30
2010,03,24,08,34,4.40
2010,03,24,08,35,4.40
2010,03,24,08,36,4.50
2010,03,24,08,37,4.50
2010,03,24,08,38,4.60
2010,03,24,08,39,4.60
2010,03,24,08,40,4.60
2010,03,24,08,41,4.70
2010,03,24,08,42,4.70
2010,03,24,08,43,4.70
2010,03,24,08,44,4.70
2010,03,24,08,45,4.80
2010,03,24,08,46,4.90
2010,03,24,08,47,4.90
2010,03,24,08,48,5.00
2010,03,24,08,49,5.00
2010,03,24,08,50,5.10
2010,03,24,08,51,5.20
2010,03,24,08,52,5.30
2010,03,24,08,53,5.30
2010,03,24,08,54,5.40
2010,03,24,08,55,5.50
2010,03,24,08,56,5.60
2010,03,24,08,57,5.70
2010,03,24,08,58,5.90
2010,03,24,08,59,6.00
2010,03,24,09,00,6.20
2010,03,24,09,01,6.30
2010,03,24,09,02,6.40
2010,03,24,09,03,6.40
2010,03,24,09,04,6.50
2010,03,24,09,05,6.60
2010,03,24,09,06,6.70
2010,03,24,09,07,6.70
2010,03,24,09,08,6.80
2010,03,24,09,09,6.80
2010,03,24,09,10,6.90
2010,03,24,09,11,7.00
2010,03,24,09,12,7.00
2010,03,24,09,13,7.10
2010,03,24,09,14,7.20
2010,03,24,09,15,7.20
2010,03,24,09,16,7.30
2010,03,24,09,17,7.40
2010,03,24,09,18,7.50
2010,03,24,09,19,7.60
2010,03,24,09,20,7.70
2010,03,24,09,21,7.80
2010,03,24,09,22,7.90
2010,03,24,09,23,7.90
2010,03,24,09,24,8.00
2010,03,24,09,25,8.00
2010,03,24,09,26,8.10
2010,03,24,09,27,8.20
2010,03,24,09,28,8.30
2010,03,24,09,29,8.50
2010,03,24,09,30,8.60
2010,03,24,09,31,8.60
2010,03,24,09,32,8.80
2010,03,24,09,33,8.90
2010,03,24,09,34,9.00
2010,03,24,09,35,9.10
2010,03,24,09,36,9.20
2010,03,24,09,37,9.30
2010,03,24,09,38,9.40
2010,03,24,09,39,9.40
2010,03,24,09,40,9.50
2010,03,24,09,41,9.60
2010,03,24,09,42,9.60
2010,03,24,09,43,9.70
2010,03,24,09,44,9.80
2010,03,24,09,45,9.80
2010,03,24,09,46,9.80
2010,03,24,09,47,9.90
2010,03,24,09,48,9.90
2010,03,24,09,49,9.90
2010,03,24,09,50,10.00
2010,03,24,09,51,10.20
2010,03,24,09,52,10.20
2010,03,24,09,53,10.30
2010,03,24,09,54,10.40
2010,03,24,09,55,10.50
2010,03,24,09,56,10.60
2010,03,24,09,57,10.60
2010,03,24,09,58,10.70
2010,03,24,09,59,10.80
2010,03,24,10,00,10.80
2010,03,24,10,01,10.80
2010,03,24,10,02,10.80
2010,03,24,10,03,10.70
2010,03,24,10,04,10.70
2010,03,24,10,05,10.60
2010,03,24,10,06,10.60
2010,03,24,10,07,10.50
2010,03,24,10,08,10.50
2010,03,24,10,09,10.40
2010,03,24,10,10,10.40
2010,03,24,10,11,10.40
2010,03,24,10,12,10.40
2010,03,24,10,13,10.40
2010,03,24,10,14,10.50
2010,03,24,10,15,10.50
2010,03,24,10,16,10.50
2010,03,24,10,17,10.50
2010,03,24,10,18,10.50
2010,03,24,10,19,10.50
2010,03,24,10,20,10.50
2010,03,24,10,21,10.30
2010,03,24,10,22,10.30
2010,03,24,10,23,10.20
2010,03,24,10,24,10.20
2010,03,24,10,25,10.10
2010,03,24,10,26,10.10
2010,03,24,10,27,10.10
2010,03,24,10,28,10.10
2010,03,24,10,29,10.10
2010,03,24,10,30,10.00
2010,03,24,10,31,10.00
2010,03,24,10,32,10.10
2010,03,24,10,33,10.10
2010,03,24,10,34,10.20
2010,03,24,10,35,10.20
2010,03,24,10,36,10.30
2010,03,24,10,37,10.40
2010,03,24,10,38,10.40
2010,03,24,10,39,10.50
2010,03,24,10,40,10.50
2010,03,24,10,41,10.50
2010,03,24,10,42,10.60
2010,03,24,10,43,10.60
2010,03,24,10,44,10.60
2010,03,24,10,45,10.60
2010,03,24,10,46,10.70
2010,03,24,10,47,10.80
2010,03,24,10,48,10.80
2010,03,24,10,49,11.00
2010,03,24,10,50,11.10
2010,03,24,10,51,11.10
2010,03,24,10,52,11.20
2010,03,24,10,53,11.20
2010,03,24,10,54,11.20
2010,03,24,10,55,11.10
2010,03,24,10,56,11.20
2010,03,24,10,57,11.20
2010,03,24,10,58,11.20
2010,03,24,10,59,11.20
2010,03,24,11,00,11.20
2010,03,24,11,01,11.20
2010,03,24,11,02,11.10
2010,03,24,11,03,11.00
2010,03,24,11,04,10.80
2010,03,24,11,05,10.70
2010,03,24,11,06,10.70
2010,03,24,11,07,10.70
2010,03,24,11,08,10.80
2010,03,24,11,09,10.70
2010,03,24,11,10,10.60
2010,03,24,11,11,10.50
2010,03,24,11,12,10.50
2010,03,24,11,13,10.40
2010,03,24,11,14,10.40
2010,03,24,11,15,10.30
2010,03,24,11,16,10.30
2010,03,24,11,17,10.30
2010,03,24,11,18,10.40
2010,03,24,11,19,10.40
2010,03,24,11,20,10.40
2010,03,24,11,21,10.40
2010,03,24,11,22,10.30
2010,03,24,11,23,10.30
2010,03,24,11,24,10.30
2010,03,24,11,25,10.40
2010,03,24,11,26,10.60
2010,03,24,11,27,10.80
2010,03,24,11,28,11.00
2010,03,24,11,29,11.10
2010,03,24,11,30,11.10
2010,03,24,11,31,11.20
2010,03,24,11,32,11.30
2010,03,24,11,33,11.40
2010,03,24,11,34,11.40
2010,03,24,11,35,11.40
2010,03,24,11,36,11.50
2010,03,24,11,37,11.50
2010,03,24,11,38,11.40
2010,03,24,11,39,11.30
2010,03,24,11,40,11.30
2010,03,24,11,41,11.30
2010,03,24,11,42,11.30
2010,03,24,11,43,11.20
2010,03,24,11,44,11.20
2010,03,24,11,45,11.20
2010,03,24,11,46,11.20
2010,03,24,11,47,11.20
2010,03,24,11,48,11.30
2010,03,24,11,49,11.30
2010,03,24,11,50,11.30
2010,03,24,11,51,11.30
2010,03,24,11,52,11.40
2010,03,24,11,53,11.40
2010,03,24,11,54,11.40
2010,03,24,11,55,11.40
2010,03,24,11,56,11.50
2010,03,24,11,57,11.50
2010,03,24,11,58,11.40
2010,03,24,11,59,11.40
2010,03,24,12,00,11.50
2010,03,24,12,01,11.60
2010,03,24,12,02,11.70
2010,03,24,12,03,11.70
2010,03,24,12,04,11.70
2010,03,24,12,05,11.70
2010,03,24,12,06,11.60
2010,03,24,12,07,11.60
2010,03,24,12,08,11.70
2010,03,24,12,09,11.80
2010,03,24,12,10,11.80
2010,03,24,12,11,11.80
2010,03,24,12,12,11.90
2010,03,24,12,13,11.90
2010,03,24,12,14,11.90
2010,03,24,12,15,11.90
2010,03,24,12,16,12.00
2010,03,24,12,17,12.10
2010,03,24,12,18,12.10
2010,03,24,12,19,12.10
2010,03,24,12,20,12.20
2010,03,24,12,21,12.20
2010,03,24,12,22,12.20
2010,03,24,12,23,12.20
2010,03,24,12,24,12.20
2010,03,24,12,25,12.20
2010,03,24,12,26,12.20
2010,03,24,12,27,12.30
2010,03,24,12,28,12.30
2010,03,24,12,29,12.30
2010,03,24,12,30,12.30
2010,03,24,12,31,12.30
2010,03,24,12,32,12.20
2010,03,24,12,33,12.20
2010,03,24,12,34,12.10
2010,03,24,12,35,12.10
2010,03,24,12,36,12.20
2010,03,24,12,37,12.20
2010,03,24,12,38,12.30
2010,03,24,12,39,12.40
2010,03,24,12,40,12.50
2010,03,24,12,41,12.50
2010,03,24,12,42,12.60
2010,03,24,12,43,12.70
2010,03,24,12,44,12.90
2010,03,24,12,45,13.00
2010,03,24,12,46,13.20
2010,03,24,12,47,13.30
2010,03,24,12,48,13.40
2010,03,24,12,49,13.50
2010,03,24,12,50,13.40
2010,03,24,12,51,13.40
2010,03,24,12,52,13.40
2010,03,24,12,53,13.50
2010,03,24,12,54,13.60
2010,03,24,12,55,13.60
2010,03,24,12,56,13.40
2010,03,24,12,57,13.30
2010,03,24,12,58,13.30
2010,03,24,12,59,13.30
2010,03,24,13,00,13.40
2010,03,24,13,01,13.40
2010,03,24,13,02,13.40
2010,03,24,13,03,13.40
2010,03,24,13,04,13.40
2010,03,24,13,05,13.40
2010,03,24,13,06,13.40
2010,03,24,13,07,13.40
2010,03,24,13,08,13.40
2010,03,24,13,09,13.30
2010,03,24,13,10,13.30
2010,03,24,13,11,13.20
2010,03,24,13,12,13.10
2010,03,24,13,13,13.10
2010,03,24,13,14,13.10
2010,03,24,13,15,13.10
2010,03,24,13,16,13.20
2010,03,24,13,17,13.20
2010,03,24,13,18,13.20
2010,03,24,13,19,13.20
2010,03,24,13,20,13.20
2010,03,24,13,21,13.20
2010,03,24,13,22,13.20
2010,03,24,13,23,13.20
2010,03,24,13,24,13.10
2010,03,24,13,25,13.10
2010,03,24,13,26,13.10
2010,03,24,13,27,13.10
2010,03,24,13,28,13.20
2010,03,24,13,29,13.20
2010,03,24,13,30,13.20
2010,03,24,13,31,13.30
2010,03,24,13,32,13.40
2010,03,24,13,33,13.40
2010,03,24,13,34,13.30
2010,03,24,13,35,13.30
2010,03,24,13,36,13.30
2010,03,24,13,37,13.20
2010,03,24,13,38,13.20
2010,03,24,13,39,13.20
2010,03,24,13,40,13.20
2010,03,24,13,41,13.20
2010,03,24,13,42,13.30
2010,03,24,13,43,13.40
2010,03,24,13,44,13.50
2010,03,24,13,45,13.60
2010,03,24,13,46,13.70
2010,03,24,13,47,13.70
2010,03,24,13,48,13.80
2010,03,24,13,49,13.80
2010,03,24,13,50,13.80
2010,03,24,13,51,13.90
2010,03,24,13,52,13.80
2010,03,24,13,53,13.80
2010,03,24,13,54,13.70
2010,03,24,13,55,13.70
2010,03,24,13,56,13.80
2010,03,24,13,57,13.80
2010,03,24,13,58,13.90
2010,03,24,13,59,13.90
2010,03,24,14,00,14.00
2010,03,24,14,01,14.00
2010,03,24,14,02,14.00
2010,03,24,14,03,14.00
2010,03,24,14,04,14.00
2010,03,24,14,05,14.10
2010,03,24,14,06,14.20
2010,03,24,14,07,14.10
2010,03,24,14,08,14.10
2010,03,24,14,09,14.10
2010,03,24,14,10,14.10
2010,03,24,14,11,14.10
2010,03,24,14,12,14.20
2010,03,24,14,13,14.30
2010,03,24,14,14,14.30
2010,03,24,14,15,14.30
2010,03,24,14,16,14.30
2010,03,24,14,17,14.20
2010,03,24,14,18,14.20
2010,03,24,14,19,14.20
2010,03,24,14,20,14.20
2010,03,24,14,21,14.30
2010,03,24,14,22,14.30
2010,03,24,14,23,14.30
2010,03,24,14,24,14.30
2010,03,24,14,25,14.30
2010,03,24,14,26,14.30
2010,03,24,14,27,14.30
2010,03,24,14,28,14.30
2010,03,24,14,29,14.30
2010,03,24,14,30,14.30
2010,03,24,14,31,14.40
2010,03,24,14,32,14.50
2010,03,24,14,33,14.60
2010,03,24,14,34,14.70
2010,03,24,14,35,14.80
2010,03,24,14,36,15.00
2010,03,24,14,37,15.00
2010,03,24,14,38,15.00
2010,03,24,14,39,14.90
2010,03,24,14,40,14.90
2010,03,24,14,41,14.90
2010,03,24,14,42,14.90
2010,03,24,14,43,14.90
2010,03,24,14,44,14.90
2010,03,24,14,45,14.80
2010,03,24,14,46,14.60
2010,03,24,14,47,14.50
2010,03,24,14,48,14.40
2010,03,24,14,49,14.40
2010,03,24,14,50,14.40
2010,03,24,14,51,14.50
2010,03,24,14,52,14.50
2010,03,24,14,53,14.60
2010,03,24,14,54,14.60
2010,03,24,14,55,14.60
2010,03,24,14,56,14.70
2010,03,24,14,57,14.70
2010,03,24,14,58,14.70
2010,03,24,14,59,14.70
2010,03,24,15,00,14.50
2010,03,24,15,01,14.50
2010,03,24,15,02,14.40
2010,03,24,15,03,14.30
2010,03,24,15,04,14.30
2010,03,24,15,05,14.30
2010,03,24,15,06,14.30
2010,03,24,15,07,14.40
2010,03,24,15,08,14.50
2010,03,24,15,09,14.60
2010,03,24,15,10,14.60
2010,03,24,15,11,14.70
2010,03,24,15,12,14.60
2010,03,24,15,13,14.50
2010,03,24,15,14,14.40
2010,03,24,15,15,14.50
2010,03,24,15,16,14.50
2010,03,24,15,17,14.60
2010,03,24,15,18,14.60
2010,03,24,15,19,14.60
2010,03,24,15,20,14.70
2010,03,24,15,21,14.70
2010,03,24,15,22,14.70
2010,03,24,15,23,14.70
2010,03,24,15,24,14.60
2010,03,24,15,25,14.60
2010,03,24,15,26,14.60
2010,03,24,15,27,14.60
2010,03,24,15,28,14.70
2010,03,24,15,29,14.70
2010,03,24,15,30,14.70
2010,03,24,15,31,14.70
2010,03,24,15,32,14.70
2010,03,24,15,33,14.60
2010,03,24,15,34,14.70
2010,03,24,15,35,14.70
2010,03,24,15,36,14.70
2010,03,24,15,37,14.70
2010,03,24,15,38,14.60
2010,03,24,15,39,14.60
2010,03,24,15,40,14.60
2010,03,24,15,41,14.70
2010,03,24,15,42,14.70
2010,03,24,15,43,14.80
2010,03,24,15,44,14.80
2010,03,24,15,45,14.90
2010,03,24,15,46,14.90
2010,03,24,15,47,15.00
2010,03,24,15,48,15.00
2010,03,24,15,49,15.00
2010,03,24,15,50,15.00
2010,03,24,15,51,15.00
2010,03,24,15,52,15.00
2010,03,24,15,53,15.10
2010,03,24,15,54,15.20
2010,03,24,15,55,15.20
2010,03,24,15,56,15.20
2010,03,24,15,57,15.20
2010,03,24,15,58,15.00
2010,03,24,15,59,15.00
2010,03,24,16,00,15.00
2010,03,24,16,01,15.00
2010,03,24,16,02,14.90
2010,03,24,16,03,15.00
2010,03,24,16,04,15.00
2010,03,24,16,05,15.00
2010,03,24,16,06,15.00
2010,03,24,16,07,15.00
2010,03,24,16,08,15.00
2010,03,24,16,09,15.00
2010,03,24,16,10,15.00
2010,03,24,16,11,15.00
2010,03,24,16,12,15.00
2010,03,24,16,13,15.00
2010,03,24,16,14,15.00
2010,03,24,16,15,15.00
2010,03,24,16,16,15.00
2010,03,24,16,17,15.00
2010,03,24,16,18,15.00
2010,03,24,16,19,15.00
2010,03,24,16,20,15.00
2010,03,24,16,21,14.90
2010,03,24,16,22,14.90
2010,03,24,16,23,14.80
2010,03,24,16,24,14.80
2010,03,24,16,25,14.80
2010,03,24,16,26,14.90
2010,03,24,16,27,14.90
2010,03,24,16,28,15.00
2010,03,24,16,29,14.90
2010,03,24,16,30,15.00
2010,03,24,16,31,15.00
2010,03,24,16,32,15.00
2010,03,24,16,33,15.00
2010,03,24,16,34,15.00
2010,03,24,16,35,15.00
2010,03,24,16,36,15.00
2010,03,24,16,37,15.00
2010,03,24,16,38,15.00
2010,03,24,16,39,15.00
2010,03,24,16,40,15.00
2010,03,24,16,41,15.00
2010,03,24,16,42,15.00
2010,03,24,16,43,15.00
2010,03,24,16,44,15.00
2010,03,24,16,45,15.00
2010,03,24,16,46,14.90
2010,03,24,16,47,14.90
2010,03,24,16,48,14.80
2010,03,24,16,49,14.80
2010,03,24,16,50,14.70
2010,03,24,16,51,14.70
2010,03,24,16,52,14.70
2010,03,24,16,53,14.70
2010,03,24,16,54,14.70
2010,03,24,16,55,14.70
2010,03,24,16,56,14.70
2010,03,24,16,57,14.70
2010,03,24,16,58,14.70
2010,03,24,16,59,14.60
2010,03,24,17,00,14.60
2010,03,24,17,01,14.60
2010,03,24,17,02,14.50
2010,03,24,17,03,14.50
2010,03,24,17,04,14.50
2010,03,24,17,05,14.50
2010,03,24,17,06,14.50
2010,03,24,17,07,14.50
2010,03,24,17,08,14.50
2010,03,24,17,09,14.40
2010,03,24,17,10,14.40
2010,03,24,17,11,14.40
2010,03,24,17,12,14.40
2010,03,24,17,13,14.40
2010,03,24,17,14,14.40
2010,03,24,17,15,14.40
2010,03,24,17,16,14.40
2010,03,24,17,17,14.40
2010,03,24,17,18,14.40
2010,03,24,17,19,14.40
2010,03,24,17,20,14.40
2010,03,24,17,21,14.40
2010,03,24,17,22,14.30
2010,03,24,17,23,14.30
2010,03,24,17,24,14.30
2010,03,24,17,25,14.30
2010,03,24,17,26,14.30
2010,03,24,17,27,14.20
2010,03,24,17,28,14.20
2010,03,24,17,29,14.20
2010,03,24,17,30,14.20
2010,03,24,17,31,14.10
2010,03,24,17,32,14.10
2010,03,24,17,33,14.10
2010,03,24,17,34,14.10
2010,03,24,17,35,14.10
2010,03,24,17,36,14.10
2010,03,24,17,37,14.10
2010,03,24,17,38,14.10
2010,03,24,17,39,14.10
2010,03,24,17,40,14.10
2010,03,24,17,41,14.20
2010,03,24,17,42,14.20
2010,03,24,17,43,14.20
2010,03,24,17,44,14.20
2010,03,24,17,45,14.20